Regional Weather Roundup
Issued by NWS

Home | Current Version | Previous Version | Graphics & Text | Print | Product List | Glossary On
Versions: 1 2 3 4 5 6 7 8 9 10 11 12 13 14 15 16 17 18 19 20 21 22 23 24 25 26 27 28 29 30 31 32 33 34 35 36 37 38 39 40 41 42 43 44 45 46 47 48 49 50
000
ASUS43 KLMK 191810
RWRKY
KENTUCKY REGIONAL WEATHER ROUNDUP
NATIONAL WEATHER SERVICE LOUISVILLE KY
100 PM EST MON FEB 19 2018

NOTE "FAIR" INDICATES FEW OR NO CLOUDS BELOW 12,000 FEET
WITH NO SIGNIFICANT WEATHER AND/OR OBSTRUCTIONS TO VISIBILITY.

KYZ001>023-026-027-061>063-070>075-191900-
WESTERN AND SOUTH CENTRAL KENTUCKY

CITY           SKY/WX    TMP DP  RH WIND       PRES   REMARKS
PADUCAH        CLOUDY    67  58  72 S12G30    30.03F
HENDERSON      PTSUNNY   68  61  78 S21G32    30.04F
OWENSBORO      FAIR      72  59  63 SW28G40   30.05F
HOPKINSVILLE   FAIR      76  56  50 S16G26    30.08F
BOWLING GREEN  PTSUNNY   74  60  61 S17G31    30.13F
GLASGOW        PTSUNNY   73  59  62 S14G26    30.14F
$$

KYZ024-025-028>034-038-045-046-053-191900-
NORTH CENTRAL KENTUCKY

CITY           SKY/WX    TMP DP  RH WIND       PRES   REMARKS
LOUISVILLE/SDF PTSUNNY   75  57  53 SW18G36   30.07S
LOUISVILLE/LOU PTSUNNY   74  58  57 SW22G35   30.08S
FORT KNOX      FAIR      73  58  57 S23G30    30.09F
$$

KYZ035>037-039>044-047>052-055>060-089>105-191900-
NORTHEAST KENTUCKY

CITY           SKY/WX    TMP DP  RH WIND       PRES   REMARKS
LEXINGTON      CLOUDY    72  58  61 S20G31    30.12F
COVINGTON      CLOUDY    70  58  65 SW23G31   30.06S
FRANKFORT      CLOUDY    72  57  59 S18G29    30.09F
$$

KYZ054-064>069-076>088-106>120-191900-
SOUTHEAST KENTUCKY

CITY           SKY/WX    TMP DP  RH WIND       PRES   REMARKS
JACKSON        CLOUDY    71  55  56 S12G22    30.20F
LONDON         CLOUDY    69  56  62 S14G24    30.20F
SOMERSET       CLOUDY    68  55  64 MISG      30.20F
MIDDLESBORO    CLOUDY    61  53  74 S9        30.28F
MONTICELLO     NOT AVBL
$$




USA.gov is the U.S. government's official web portal to all federal, state and local government web resources and services.